Hourly Weather Roundup
Issued by NWS Central Illinois

Home | Current Version | Previous Version | Text Only | Print | Product List | Glossary On
Versions: 1 2 3 4 5 6 7 8 9 10 11 12 13 14 15 16 17 18 19 20 21 22 23 24 25 26 27 28 29 30 31 32 33 34 35 36 37 38 39 40 41 42 43 44 45 46 47 48 49 50
000
NZUS43 KILX 250910
HWRILX

AREA WEATHER ROUNDUP
NATIONAL WEATHER SERVICE, LINCOLN IL
400 AM CDT SAT OCT 25 2014


CITY           SKY/WX    TMP DP  RH WIND       PRES   REMARKS
BLOOMINGTON    MOCLDY    57  53  86 W7        29.95S
CHAMPAIGN      MOCLDY    54  51  90 MISG      29.94F
DECATUR        MOCLDY    60  53  77 W8        29.95F
FLORA          PTCLDY    59  53  82 SW6       29.98F
GALESBURG      FOG       50  50  99 CALM      29.96R VSB<1/4
JACKSONVILLE   NOT AVBL
LACON          PTCLDY    52  49  88 CALM      29.94R
LAWRENCEVILLE  CLOUDY    56  53  90 S6        29.99F
LITCHFIELD     PTCLDY    54  50  88 S3        29.97F
$$


CITY           SKY/WX    TMP DP  RH WIND       PRES   REMARKS
LINCOLN        MOCLDY    55  51  87 CALM      29.93S
MACOMB         FOG       47  47 100 W6        29.97S VSB 1/4
MATTOON        MOCLDY    59  52  77 SW8       29.95S
MT CARMEL AP   CLOUDY    61  54  77 CALM      29.99S
OLNEY-NOBLE AP CLOUDY    59  54  82 CALM      29.99S
PARIS          MOCLDY    59  54  84 SW6       29.96F
PEORIA         PTCLDY    52  49  89 CALM      29.95R
PONTIAC        PTCLDY    55  51  89 W8        29.94R
RANTOUL        MOCLDY    56  53  89 SW7       29.92F
ROBINSON       CLOUDY    60  55  84 S6        29.98F
SPRINGFIELD    MOCLDY    54  51  90 VRB3      29.96S
TAYLORVILLE    PTCLDY    59  54  82 W9        29.96F
$$

...REGIONAL REPORTS...


CITY           SKY/WX    TMP DP  RH WIND       PRES   REMARKS
CHICAGO O`HARE CLOUDY    57  52  83 W9        29.90R
KANKAKEE       PTCLDY    53  51  90 W6        29.92S
MOLINE         FOG       56  55  97 W7        29.94S VSB 3/4
MOUNT VERNON   PTCLDY    52  46  82 CALM      30.00S
PITTSFIELD     PTCLDY    61  58  90 W5        29.97F
QUINCY         FOG       56  56 100 W6        29.97R VSB 1/2
ROCKFORD       CLOUDY    57  54  89 W3        29.94F FOG
$$


CITY           SKY/WX    TMP DP  RH WIND       PRES   REMARKS
BURLINGTON     FOG       54  54 100 NW5       29.96R VSB 1/4
CEDAR RAPIDS   FOG       51  51 100 NW5       29.95F VSB<1/4
DES MOINES     CLEAR     53  50  89 N6        29.99F
KIRKSVILLE     FOG       56  56 100 W5        30.00R VSB 1/4
OTTUMWA        CLEAR     51  50  96 NW6       29.98R FOG
ST LOUIS       NOT AVBL
$$


CITY           SKY/WX    TMP DP  RH WIND       PRES   REMARKS
TERRE HAUTE    CLOUDY    58  52  80 S7        29.96F
EVANSVILLE     CLOUDY    57  53  86 SW7       30.01F
INDIANAPOLIS   MOCLDY    52  49  89 S6        29.96F
LAFAYETTE      PTCLDY    55  51  86 SW6       29.93F
MADISON        CLEAR     57  54  89 W6        29.88S
MILWAUKEE      MOCLDY    56  53  90 W12G21    29.87S
$$





USA.gov is the U.S. government's official web portal to all federal, state and local government web resources and services.